When you browse on this site, cookies collect data to enhance your experience and personalize the content and advertising you see.
Visit our Privacy Policy to learn more. By continuing to use the site, you agree to this use of cookies and data.

Meteo pe oră la Folkern

Astăzi, 13 August, Joi

Timp Temperatura Precipitaţii Vânt Presiune Umiditate
00:00 +14°C° 0 mm 6 m/s 763 mmHg 97%
01:00 +14°C° 0 mm 6 m/s 763 mmHg 96%
02:00 +14°C° 0 mm 6 m/s 763 mmHg 96%
03:00 +14°C° 0 mm 6 m/s 763 mmHg 96%
04:00 +14°C° 0 mm 7 m/s 763 mmHg 96%
05:00 +14°C° 0 mm 7 m/s 763 mmHg 96%
06:00 +14°C° 0 mm 7 m/s 763 mmHg 97%
07:00 +14°C° 0 mm 7 m/s 763 mmHg 93%
08:00 +15°C° 0 mm 7 m/s 763 mmHg 90%
09:00 +16°C° 0 mm 8 m/s 763 mmHg 86%
10:00 +17°C° 0 mm 7 m/s 763 mmHg 84%
11:00 +17°C° 0 mm 7 m/s 763 mmHg 82%
12:00 +19°C° 0 mm 6 m/s 763 mmHg 80%
13:00 +19°C° 0 mm 6 m/s 763 mmHg 80%
14:00 +19°C° 0 mm 6 m/s 763 mmHg 80%
15:00 +19°C° 0 mm 6 m/s 763 mmHg 80%
16:00 +17°C° 0 mm 6 m/s 763 mmHg 82%
17:00 +16°C° 0 mm 6 m/s 763 mmHg 85%
18:00 +15°C° 0 mm 7 m/s 763 mmHg 87%
19:00 +15°C° 0 mm 7 m/s 763 mmHg 90%
20:00 +14°C° 0 mm 7 m/s 763 mmHg 92%
21:00 +12°C° 0 mm 7 m/s 763 mmHg 95%
22:00 +13°C° 0 mm 6 m/s 763 mmHg 95%
23:00 +13°C° 0 mm 5 m/s 763 mmHg 96%

Mâine, 14 August, Vineri

Timp Temperatura Precipitaţii Vânt Presiune Umiditate
00:00 +13°C° 0 mm 5 m/s 763 mmHg 96%
01:00 +13°C° 0 mm 4 m/s 763 mmHg 96%
02:00 +13°C° 0 mm 4 m/s 763 mmHg 96%
03:00 +13°C° 0 mm 3 m/s 763 mmHg 96%
04:00 +13°C° 0 mm 4 m/s 763 mmHg 96%
05:00 +13°C° 0 mm 4 m/s 763 mmHg 96%
06:00 +13°C° 0 mm 4 m/s 762 mmHg 96%
07:00 +14°C° 0 mm 4 m/s 763 mmHg 93%
08:00 +17°C° 0 mm 4 m/s 763 mmHg 89%
09:00 +18°C° 0 mm 3 m/s 763 mmHg 85%
10:00 +18°C° 0 mm 3 m/s 763 mmHg 82%
11:00 +19°C° 0 mm 3 m/s 763 mmHg 80%
12:00 +20°C° 0 mm 4 m/s 762 mmHg 77%
13:00 +20°C° 0 mm 4 m/s 762 mmHg 75%
14:00 +20°C° 0 mm 4 m/s 762 mmHg 74%
15:00 +20°C° 0 mm 4 m/s 762 mmHg 73%
16:00 +19°C° 0 mm 4 m/s 762 mmHg 75%
17:00 +18°C° 0 mm 4 m/s 762 mmHg 78%
18:00 +16°C° 0 mm 5 m/s 762 mmHg 80%
19:00 +15°C° 0 mm 4 m/s 762 mmHg 83%
20:00 +14°C° 0 mm 4 m/s 763 mmHg 86%
21:00 +13°C° 0 mm 4 m/s 763 mmHg 89%
22:00 +13°C° 0 mm 4 m/s 763 mmHg 89%
23:00 +13°C° 0 mm 4 m/s 763 mmHg 90%

Poimâine, 15 August, Sâmbătă

Timp Temperatura Precipitaţii Vânt Presiune Umiditate
00:00 +12°C° 0 mm 4 m/s 763 mmHg 90%
01:00 +12°C° 0 mm 4 m/s 763 mmHg 91%
02:00 +12°C° 0 mm 4 m/s 763 mmHg 92%
03:00 +12°C° 0 mm 3 m/s 763 mmHg 93%
04:00 +12°C° 0 mm 4 m/s 763 mmHg 93%
05:00 +12°C° 0 mm 4 m/s 763 mmHg 93%
06:00 +13°C° 0 mm 4 m/s 762 mmHg 93%
07:00 +14°C° 0 mm 4 m/s 763 mmHg 88%
08:00 +15°C° 0 mm 4 m/s 763 mmHg 83%
09:00 +18°C° 0 mm 4 m/s 763 mmHg 78%
10:00 +18°C° 0 mm 4 m/s 763 mmHg 76%
11:00 +19°C° 0 mm 4 m/s 763 mmHg 74%
12:00 +20°C° 0 mm 4 m/s 763 mmHg 72%
13:00 +20°C° 0 mm 4 m/s 763 mmHg 72%
14:00 +19°C° 0 mm 4 m/s 763 mmHg 71%
15:00 +19°C° 0 mm 5 m/s 763 mmHg 71%
16:00 +19°C° 0 mm 5 m/s 763 mmHg 74%
17:00 +17°C° 0 mm 5 m/s 762 mmHg 78%
18:00 +16°C° 0 mm 5 m/s 762 mmHg 81%
19:00 +15°C° 0 mm 5 m/s 762 mmHg 85%
20:00 +14°C° 0 mm 5 m/s 762 mmHg 90%
21:00 +13°C° 0 mm 5 m/s 763 mmHg 95%
22:00 +13°C° 0 mm 5 m/s 762 mmHg 95%
23:00 +13°C° 0 mm 4 m/s 762 mmHg 96%

16 August, Duminică

Timp Temperatura Precipitaţii Vânt Presiune Umiditate
00:00 +13°C° 0 mm 4 m/s 762 mmHg 96%
01:00 +13°C° 0 mm 3 m/s 762 mmHg 95%
02:00 +13°C° 0 mm 3 m/s 762 mmHg 95%
03:00 +15°C° 0 mm 2 m/s 761 mmHg 94%
04:00 +14°C° 0 mm 3 m/s 761 mmHg 92%
05:00 +16°C° 0 mm 3 m/s 761 mmHg 91%
06:00 +16°C° 0 mm 3 m/s 761 mmHg 89%
07:00 +17°C° 0 mm 3 m/s 761 mmHg 85%
08:00 +18°C° 0 mm 3 m/s 761 mmHg 81%
09:00 +19°C° 0 mm 3 m/s 761 mmHg 78%
10:00 +20°C° 0 mm 3 m/s 761 mmHg 77%
11:00 +20°C° 0 mm 3 m/s 761 mmHg 76%
12:00 +21°C° 0 mm 3 m/s 760 mmHg 76%
13:00 +20°C° 0 mm 3 m/s 760 mmHg 76%
14:00 +20°C° 0 mm 2 m/s 760 mmHg 77%
15:00 +20°C° 0 mm 2 m/s 760 mmHg 77%
16:00 +20°C° 0 mm 2 m/s 760 mmHg 78%
17:00 +20°C° 0 mm 2 m/s 759 mmHg 78%
18:00 +19°C° 0 mm 2 m/s 759 mmHg 79%
19:00 +18°C° 0 mm 2 m/s 759 mmHg 81%
20:00 +17°C° 0 mm 2 m/s 759 mmHg 83%
21:00 +16°C° 0 mm 2 m/s 759 mmHg 85%
22:00 +16°C° 0 mm 2 m/s 759 mmHg 87%
23:00 +16°C° 0 mm 3 m/s 759 mmHg 89%

17 August, Luni

Timp Temperatura Precipitaţii Vânt Presiune Umiditate
00:00 +14°C° 0 mm 3 m/s 759 mmHg 90%
01:00 +14°C° 0 mm 3 m/s 759 mmHg 90%
02:00 +14°C° 0 mm 3 m/s 759 mmHg 90%
03:00 +13°C° 0 mm 3 m/s 759 mmHg 90%
04:00 +13°C° 0 mm 3 m/s 759 mmHg 89%
05:00 +13°C° 0 mm 4 m/s 758 mmHg 88%
06:00 +13°C° 0 mm 4 m/s 758 mmHg 86%
07:00 +14°C° 0 mm 4 m/s 758 mmHg 83%
08:00 +17°C° 0 mm 4 m/s 758 mmHg 79%
09:00 +18°C° 0 mm 3 m/s 758 mmHg 75%
10:00 +18°C° 0 mm 3 m/s 758 mmHg 73%
11:00 +18°C° 0 mm 3 m/s 758 mmHg 70%
12:00 +19°C° 0 mm 2 m/s 758 mmHg 68%
13:00 +19°C° 0 mm 2 m/s 758 mmHg 68%
14:00 +19°C° 0 mm 2 m/s 758 mmHg 69%
15:00 +19°C° 0 mm 2 m/s 758 mmHg 69%
16:00 +18°C° 0 mm 2 m/s 758 mmHg 73%
17:00 +18°C° 0 mm 2 m/s 758 mmHg 76%
18:00 +17°C° 0 mm 2 m/s 758 mmHg 79%
19:00 +16°C° 0 mm 2 m/s 758 mmHg 84%
20:00 +15°C° 0 mm 2 m/s 758 mmHg 88%
21:00 +13°C° 0 mm 2 m/s 759 mmHg 92%
22:00 +13°C° 0 mm 2 m/s 759 mmHg 92%
23:00 +13°C° 0 mm 1 m/s 759 mmHg 92%

18 August, Marţi

Timp Temperatura Precipitaţii Vânt Presiune Umiditate
00:00 +13°C° 0 mm 1 m/s 759 mmHg 92%
01:00 +13°C° 0 mm 1 m/s 759 mmHg 92%
02:00 +13°C° 0 mm 1 m/s 758 mmHg 92%
03:00 +13°C° 0 mm 1 m/s 758 mmHg 92%
04:00 +13°C° 0 mm 1 m/s 758 mmHg 92%
05:00 +13°C° 0 mm 1 m/s 759 mmHg 93%
06:00 +13°C° 0 mm 1 m/s 759 mmHg 93%
07:00 +14°C° 0 mm 1 m/s 759 mmHg 88%
08:00 +16°C° 0 mm 1 m/s 759 mmHg 83%
09:00 +18°C° 0 mm 1 m/s 759 mmHg 79%
10:00 +18°C° 0 mm 1 m/s 759 mmHg 77%
11:00 +18°C° 0 mm 1 m/s 759 mmHg 76%
12:00 +18°C° 0 mm 1 m/s 759 mmHg 75%
13:00 +19°C° 0 mm 1 m/s 759 mmHg 73%
14:00 +19°C° 0 mm 1 m/s 759 mmHg 72%
15:00 +19°C° 0 mm 1 m/s 759 mmHg 70%
16:00 +18°C° 0 mm 2 m/s 759 mmHg 73%
17:00 +17°C° 0 mm 2 m/s 759 mmHg 76%
18:00 +17°C° 0 mm 2 m/s 760 mmHg 78%
19:00 +16°C° 0 mm 1 m/s 760 mmHg 83%
20:00 +15°C° 0 mm 1 m/s 760 mmHg 87%
21:00 +14°C° 0 mm 1 m/s 760 mmHg 91%
22:00 +14°C° 0 mm 1 m/s 760 mmHg 91%
23:00 +14°C° 0 mm 1 m/s 760 mmHg 91%
Arată mai mult